Jamestown, ND

2:19 PM CDT on June 28, 2017 (GMT -0500)
Jamestown Municipal

Weather History for KJMS - October, 2013

Change the Weather History Date:

Thursday, October 10, 2013

  Actual Average Record
Temperature  
Mean Temperature 59 °F 47 °F  
Max Temperature 71 °F 59 °F 88 °F (2015)
Min Temperature 47 °F 35 °F 11 °F (1935)
Degree Days  
Heating Degree Days 6 18  
Month to date heating degree days 146 162  
Since 1 July heating degree days 309 480  
Cooling Degree Days 0 0  
Month to date cooling degree days 0 0  
Year to date cooling degree days 521 445  
Growing Degree Days 8 (Base 50)    
Moisture  
Dew Point 48 °F    
Average Humidity 68    
Maximum Humidity 82    
Minimum Humidity 53    
Precipitation  
Precipitation 0.01 in 0.05 in 1.45 in (1949)
Month to date precipitation 1.78 0.57  
Year to date precipitation 13.15 16.76  
Sea Level Pressure  
Sea Level Pressure 29.79 in    
Wind  
Wind Speed 7 mph (ENE)    
Max Wind Speed 16 mph    
Max Gust Speed 21 mph    
Visibility 9 miles    
Events Rain    
T = Trace of Precipitation, MM = Missing Value Source: NWS Daily Summary

Daily Weather History Graph

Daily Weather History Graph

Search for Another Location

Airport or City:

Trip Planner

Search our weather history database for the weather conditions in past years. The results will help you decide how hot, cold, wet, or windy it might be!

Date:

Astronomy

Oct. 10, 2013 Rise Set
Actual Time 7:46 AM CDT 6:56 PM CDT
Civil Twilight 7:15 AM CDT 7:26 PM CDT
Nautical Twilight 6:40 AM CDT 8:01 PM CDT
Astronomical Twilight 6:05 AM CDT 8:37 PM CDT
Moon 1:53 PM CDT (10/10) 11:22 PM CDT (10/10)
Length of Visible Light 12h 11m
Length of Day
11h 10m
Waxing Crescent, 36% of the Moon is Illuminated
Oct 10
Waxing Crescent
Oct 11
First Quarter
Oct 18
Full
Oct 26
Last Quarter
Nov 3
New

Hourly Weather History & Observations

Time (CDT) Temp. Dew Point Humidity Pressure Visibility Wind Dir Wind Speed Gust Speed Precip Events Conditions
12:56 AM 46.9 °F 39.9 °F 77% 29.96 in 10.0 mi North 5.8 mph - N/A   Clear
1:56 AM 50.0 °F 42.1 °F 74% 29.94 in 10.0 mi NNE 4.6 mph - N/A   Clear
2:56 AM 46.9 °F 41.0 °F 80% 29.92 in 10.0 mi North 5.8 mph - N/A   Clear
3:56 AM 51.1 °F 42.1 °F 71% 29.90 in 10.0 mi NNE 8.1 mph - N/A   Clear
4:56 AM 50.0 °F 42.1 °F 74% 29.89 in 10.0 mi NNE 4.6 mph - N/A   Mostly Cloudy
5:56 AM 52.0 °F 43.0 °F 71% 29.88 in 10.0 mi North 4.6 mph - N/A   Overcast
6:56 AM 52.0 °F 43.0 °F 71% 29.86 in 10.0 mi North 4.6 mph - N/A   Overcast
7:56 AM 50.0 °F 43.0 °F 77% 29.85 in 10.0 mi NNW 3.5 mph - N/A   Mostly Cloudy
8:56 AM 53.1 °F 43.0 °F 69% 29.85 in 10.0 mi NE 4.6 mph - N/A   Partly Cloudy
9:56 AM 55.9 °F 45.0 °F 67% 29.83 in 9.0 mi NE 8.1 mph - N/A   Clear
10:56 AM 57.0 °F 46.9 °F 69% 29.82 in 4.0 mi East 8.1 mph - N/A   Haze
11:56 AM 61.0 °F 48.0 °F 62% 29.80 in 10.0 mi Variable 3.5 mph - N/A   Clear
12:56 PM 63.0 °F 48.9 °F 60% 29.78 in 10.0 mi East 3.5 mph - N/A   Clear
1:56 PM 68.0 °F 51.1 °F 55% 29.75 in 10.0 mi SE 9.2 mph - N/A   Clear
2:56 PM 70.0 °F 52.0 °F 53% 29.73 in 10.0 mi ESE 9.2 mph - N/A   Clear
3:56 PM 70.0 °F 53.1 °F 55% 29.72 in 10.0 mi SSE 8.1 mph - N/A   Clear
4:56 PM 69.1 °F 53.1 °F 57% 29.70 in 10.0 mi SSE 11.5 mph - N/A   Clear
5:56 PM 66.0 °F 53.1 °F 63% 29.71 in 10.0 mi SSE 8.1 mph - N/A   Clear
6:56 PM 62.1 °F 53.1 °F 72% 29.70 in 10.0 mi SE 3.5 mph - N/A   Clear
7:56 PM 59.0 °F 52.0 °F 78% 29.70 in 6.0 mi ENE 4.6 mph - N/A   Haze
8:56 PM 57.9 °F 52.0 °F 81% 29.68 in 5.0 mi East 3.5 mph - N/A   Haze
9:56 PM 61.0 °F 53.1 °F 75% 29.66 in 5.0 mi East 9.2 mph - N/A   Haze
10:56 PM 62.1 °F 54.0 °F 75% 29.65 in 6.0 mi ESE 11.5 mph - 0.00 in Rain Light Rain
11:56 PM 59.0 °F 55.0 °F 87% 29.68 in 10.0 mi NW 3.5 mph - 0.00 in   Overcast